Location: Diebersbach
(48.5163°N, 8.0558°E)
Time: 19:04:45
(UTC+00:00)

USA 281 - Pass Details

Date: 23 October 2021
Orbit: 1078 x 1081 km, 106.0° (Epoch: 25 November)

Event Time Altitude Azimuth Distance (km) Brightness Sun altitude
Rises 00:00:52 0° 21° (NNE) 3,888 6.8 -51.5°
Reaches altitude 10° 00:04:21 10° 3° (N) 2,929 5.9 -51.3°
Enters shadow 00:04:59 12° 358° (N) 2,799 5.8 -51.3°
